Temperature
18 18 18 18 18 18 18 18 18 17 17 18 18 18 18 18 17 18 18 18 18 18 18 17 17 17 17 17 17 17 17 16 16 16 16 16 16 16 16 16 16 16 16
18 18 18 18 18 18 18 18 18 18 18 18 18 18 18 18 17 17 18 18 18 18 18 17 17 17 17 17 17 17 17 16 16 16 16 16 16 16 16 16 16 16 16
18 18 18 18 18 18 18 18 18 18 18 18 18 18 18 18 17 17 17 17 17 17 17 17 17 17 17 17 17 17 17 17 17 16 16 16 16 16 16 16 16 16 16
18 18 18 18 18 18 18 18 18 18 18 18 18 18 18 18 17 17 17 17 17 17 17 17 17 17 17 17 17 17 16 17 17 17 16 16 16 16 16 16 16 16 16
18 18 18 18 18 18 18 18 18 18 18 18 18 18 18 18 18 17 17 17 17 17 17 17 17 17 17 17 17 17 16 16 16 16 16 16 16 16 16 16 16 16 16
18 18 18 18 18 18 18 18 18 18 18 18 18 18 18 18 18 17 17 17 17 17 17 17 17 17 17 17 17 17 17 16 16 16 16 16 16 16 16 16 16 16 16
18 18 18 18 18 18 18 17 18 18 18 18 18 18 18 18 18 18 18 17 17 17 17 17 17 17 17 17 17 17 17 16 16 16 16 16 16 16 16 16 16 16 16
18 18 18 18 18 18 17 17 17 17 18 18 18 18 18 18 18 18 18 18 18 17 17 17 17 17 17 17 17 16 16 16 16 16 16 16 16 16 16 16 16 16 16
17 18 18 18 18 18 17 17 17 18 18 18 18 18 18 18 18 18 18 18 18 17 17 17 17 17 17 17 17 16 16 16 16 16 16 16 16 16 16 15 15 15 15
17 17 17 17 17 17 17 17 17 17 18 18 18 18 18 18 18 18 18 18 18 18 18 17 17 17 17 17 17 16 16 16 16 16 16 16 16 16 15 15 15 15 15
17 17 17 17 17 17 17 17 17 17 17 18 18 18 18 18 18 18 18 18 18 18 18 18 18 17 17 17 17 17 16 16 16 16 16 16 16 16 15 15 15 15 15
18 17 17 17 17 17 17 17 17 17 17 17 18 18 18 18 18 18 18 18 18 18 18 18 18 17 17 17 17 17 16 16 16 16 16 16 16 16 15 15 15 15 15
17 17 17 17 17 17 17 17 17 17 17 17 17 18 18 18 18 18 18 18 18 18 18 18 18 18 17 17 17 17 17 16 16 16 16 16 16 16 16 15 15 15 15
18 17 17 17 17 17 17 17 17 17 17 17 17 17 17 18 18 18 18 18 18 18 18 18 18 18 17 17 17 17 17 16 16 16 16 16 16 16 16 15 15 15 15
18 18 17 17 17 17 17 17 17 16 17 17 17 17 17 17 17 18 18 18 18 18 18 18 18 17 17 17 17 17 16 16 16 16 16 16 16 16 16 15 15 15 15
18 17 17 17 17 17 17 17 17 17 16 16 17 17 17 17 17 17 17 17 17 17 17 17 17 17 17 17 17 16 16 16 16 16 16 16 15 15 15 15 15 15 15
17 17 17 17 17 17 17 17 17 16 16 16 16 16 16 16 17 17 17 17 17 17 17 17 17 17 16 16 16 16 16 15 15 15 15 15 15 15 15 15 15 15 15
17 17 17 17 17 17 17 17 17 16 16 16 16 16 16 16 16 16 16 16 16 16 16 16 16 16 16 15 15 15 15 15 15 15 15 15 15 14 14 14 14 14 14
17 17 17 17 17 16 16 16 16 16 16 16 16 16 16 16 16 16 16 16 16 16 15 15 15 15 15 15 15 15 14 14 14 14 14 14 14 14 13 13 13 13 13
17 16 16 16 16 16 16 16 16 16 16 16 15 15 15 15 15 15 15 15 15 15 15 15 15 14 14 14 14 14 14 14 14 13 13 13 13 13 13 13 12 12 12
16 16 16 16 16 16 16 16 16 15 15 15 15 15 14 14 14 14 14 14 14 14 14 14 13 13 13 13 13 13 12 12 12 12 12 12 12 12 12 12 11 11 11
16 16 16 16 16 15 15 15 15 15 15 14 14 14 14 14 14 14 14 13 13 13 13 13 12 12 12 12 12 12 11 12 12 12 11 11 11 11 11 11 10 10 10
15 15 15 15 15 15 15 15 14 14 14 14 13 13 13 13 13 13 13 13 12 12 12 12 12 12 11 11 11 11 11 11 11 10 10 10 10 10 10 10 10 9 9
15 15 15 14 14 14 14 14 14 14 13 13 13 12 12 12 12 12 12 12 11 11 11 11 11 10 10 10 10 10 10 10 10 9 9 9 9 9 9 9 9 9 8
14 14 14 14 13 13 13 13 13 13 13 12 12 12 11 11 11 11 11 10 10 10 10 10 10 9 9 9 9 9 9 9 9 8 8 8 8 8 8 8 8 8 8
14 13 13 13 13 12 12 12 12 12 12 11 11 11 11 10 10 10 10 10 9 9 9 9 9 8 8 8 8 8 8 8 7 7 7 7 7 7 7 7 7 7 7
Wind_Speed
4 5 4 5 7 8 7 5 4 5 4 3 2 4 3 6 12 14 13 15 14 12 11 10 10 10 9 9 9 9 8 8 8 7 7 7 7 7 6 6 6 6 6
5 4 4 3 3 5 5 4 4 4 2 2 2 3 3 5 10 14 14 13 13 12 11 10 10 10 9 9 9 8 8 8 8 8 8 7 7 6 6 6 6 6 6
7 5 4 3 3 5 5 3 4 4 4 3 3 3 3 3 6 10 13 13 13 12 12 11 11 10 10 9 9 9 9 9 9 9 9 8 8 7 7 6 6 6 6
8 5 4 3 4 6 3 2 3 3 3 3 4 3 3 3 4 6 9 12 13 13 13 13 12 11 11 10 10 10 10 10 10 10 10 10 9 9 8 8 7 7 7
8 4 2 3 4 3 3 3 3 2 2 3 4 4 3 3 3 5 6 9 11 13 14 14 14 13 12 12 11 11 10 11 11 11 11 11 11 10 10 10 9 9 9
8 5 4 4 4 3 3 2 3 2 2 1 2 4 3 4 4 4 4 7 10 12 14 15 15 14 15 14 12 12 11 11 12 12 12 12 12 12 12 12 11 11 11
7 4 3 4 2 3 4 4 3 4 2 2 1 2 2 4 4 4 3 3 6 8 11 15 15 14 14 16 15 14 13 12 12 13 13 13 13 13 13 13 13 13 13
8 7 4 4 3 3 3 2 1 1 3 4 2 1 1 1 2 5 4 5 5 6 8 12 13 14 13 13 16 17 16 14 13 13 13 13 13 13 14 14 14 14 14
7 4 6 4 4 4 4 4 4 3 2 2 2 2 1 2 2 2 4 4 4 4 4 7 11 13 13 14 15 18 18 16 15 13 13 13 13 14 14 14 14 15 15
7 6 6 4 3 3 5 5 5 3 3 2 2 2 1 2 1 1 2 3 6 6 5 5 7 11 12 11 13 16 18 17 16 14 13 13 14 14 14 14 14 15 15
6 7 6 5 4 3 4 4 3 2 2 3 2 2 3 2 2 2 2 2 3 4 5 4 3 7 11 11 12 15 18 17 15 14 12 12 13 13 14 14 14 14 14
5 6 6 5 5 4 3 3 3 3 2 2 2 1 1 2 2 2 2 3 3 3 4 3 3 4 8 10 10 14 19 17 15 13 12 11 11 11 12 13 13 13 14
6 6 7 5 5 4 4 4 4 3 3 3 2 2 1 1 1 1 0 1 1 2 3 3 3 4 6 7 8 13 16 16 14 13 12 11 11 11 11 11 12 12 12
6 7 7 6 6 5 5 4 4 5 4 3 4 3 2 2 1 1 1 0 1 2 2 3 2 3 3 6 9 12 11 14 14 12 11 11 10 10 9 9 10 10 10
5 7 7 7 6 6 4 4 4 4 4 4 4 4 3 2 2 2 1 1 1 1 2 1 0 1 3 6 9 7 5 11 13 11 10 9 9 8 8 8 8 8 8
4 6 7 7 7 6 6 5 4 4 5 4 3 2 2 2 2 1 1 2 2 1 1 1 0 2 3 3 5 2 1 5 9 10 10 9 8 7 6 6 6 6 6
4 5 5 6 6 6 6 6 5 5 5 4 3 2 2 0 2 2 2 2 2 1 1 2 1 2 3 3 3 1 0 3 4 8 8 7 6 6 5 4 4 4 3
4 4 4 5 5 5 5 5 5 4 4 4 2 1 1 1 0 2 2 2 2 1 1 1 1 2 2 2 1 1 2 2 1 4 7 6 5 3 3 2 2 1 0
4 4 4 4 3 3 4 5 4 3 3 3 3 3 2 2 2 2 2 3 3 3 1 0 1 2 2 3 3 3 3 3 4 3 4 4 3 2 2 2 3 4 4
4 3 3 3 3 3 4 4 4 4 5 5 5 5 5 4 4 3 3 3 3 3 2 2 2 3 3 4 4 3 3 3 4 5 6 4 3 3 3 5 6 7 6
4 4 4 4 4 4 3 5 5 5 6 6 6 7 8 11 11 8 5 5 4 4 3 3 3 3 4 4 4 3 3 3 3 4 3 3 2 2 3 7 6 6 5
5 5 5 5 6 4 6 7 6 6 7 7 7 7 8 9 12 14 15 14 11 7 5 5 5 5 5 5 5 4 4 4 3 3 3 3 1 1 1 5 7 6 4
7 7 7 8 8 7 9 10 10 8 8 7 6 6 7 7 8 8 10 12 14 14 11 7 6 5 4 5 5 5 4 4 3 3 3 3 3 3 4 2 5 5 3
7 7 7 7 8 8 9 10 11 10 9 8 8 7 8 7 7 7 9 10 9 9 9 7 6 5 5 4 4 4 5 5 3 3 4 3 4 4 4 4 5 6 6
8 8 8 8 8 8 9 9 10 9 9 9 9 9 8 7 9 9 8 8 7 6 10 10 8 6 6 7 7 5 6 5 4 4 5 4 4 5 4 3 4 5 8
9 8 9 8 8 8 9 9 8 8 9 9 9 9 13 11 11 11 8 7 6 4 3 2 2 2 2 5 7 6 5 5 5 3 5 5 5 5 5 4 5 8 8
Wind_Direction
140 137 134 160 183 166 172 186 167 136 142 158 155 117 99 113 129 132 141 148 150 153 156 159 159 158 159 159 158 158 156 155 154 153 151 151 151 154 155 153 152 153 153
126 135 141 172 173 148 149 150 133 129 150 135 106 115 124 120 120 135 145 154 158 163 168 171 170 171 172 173 173 173 173 172 171 170 171 170 169 171 173 173 173 172 169
139 146 150 181 146 127 125 136 143 151 163 159 142 127 121 117 128 133 149 162 168 174 177 180 180 181 185 187 188 188 189 189 189 187 187 186 186 187 190 191 191 192 191
149 155 159 162 139 141 159 157 162 160 167 149 146 157 139 136 140 148 162 168 170 177 185 189 189 190 193 197 199 200 200 201 201 200 200 201 201 201 203 204 206 207 207
153 160 142 128 163 156 171 186 155 166 163 157 165 166 169 164 165 184 177 173 173 172 178 190 195 198 201 204 207 207 208 209 209 209 209 211 212 213 214 214 215 217 219
163 168 150 154 186 171 161 118 126 111 116 196 217 162 173 170 179 183 190 181 178 183 179 180 190 203 209 210 211 212 214 214 214 215 217 218 219 220 221 222 223 224 226
170 169 154 156 193 157 156 156 155 164 188 191 172 156 196 188 185 181 191 179 184 190 177 176 189 195 201 213 215 214 216 218 218 219 222 224 225 225 226 227 228 229 230
180 173 167 173 177 145 151 165 157 185 207 191 185 151 201 207 220 198 183 191 186 185 186 190 193 189 195 194 210 215 217 218 219 221 223 226 228 229 230 231 231 232 234
184 180 167 186 176 175 170 188 185 202 228 206 188 177 171 193 208 214 201 184 180 183 195 195 195 192 198 192 198 209 214 217 220 224 226 228 231 233 234 234 234 235 237
182 184 175 178 177 185 167 193 189 197 202 228 199 196 164 122 151 191 233 193 189 191 205 211 201 190 199 193 186 193 206 212 218 223 226 229 232 233 235 236 237 238 239
193 188 176 176 190 205 173 176 148 195 215 229 226 199 190 181 216 189 206 206 206 197 196 209 198 187 196 191 182 189 198 205 211 218 225 231 234 236 237 239 240 242 242
194 195 181 181 190 201 171 160 159 194 232 265 284 263 197 191 222 214 204 208 211 210 189 185 197 197 192 190 196 192 192 199 206 213 222 229 233 235 238 242 245 247 248
189 192 184 179 191 189 173 174 177 213 210 226 255 284 293 262 241 255 233 250 234 210 187 186 195 196 196 181 176 179 187 195 203 212 221 229 235 239 243 245 247 250 253
188 173 173 181 189 190 193 179 188 201 199 205 229 245 290 285 285 272 232 272 286 263 204 206 192 171 175 152 162 173 184 197 203 211 220 228 235 239 243 248 251 252 254
185 170 176 184 188 188 191 175 204 207 172 193 223 218 238 274 270 287 323 336 285 286 272 264 95 99 124 129 150 177 182 194 201 205 212 221 229 235 241 246 250 253 257
189 171 183 187 187 185 188 192 207 196 177 194 217 217 210 283 311 329 13 357 356 302 291 357 41 70 55 98 132 157 169 174 193 201 208 215 221 227 235 244 251 257 265
172 172 185 191 189 190 191 194 210 196 186 193 218 209 183 293 6 10 17 7 358 355 296 319 41 57 60 46 68 344 227 145 179 200 202 204 209 215 220 227 237 249 264
179 179 184 191 198 190 186 191 200 192 173 175 187 146 139 200 87 358 6 352 347 4 353 318 358 36 42 40 20 341 14 41 62 158 181 183 189 197 205 205 201 187 22
180 174 177 188 199 179 164 167 164 148 132 125 112 92 71 50 48 38 23 360 357 357 37 193 346 41 43 23 23 13 18 34 24 86 129 151 154 159 169 142 117 93 70
159 153 153 164 155 140 139 141 138 127 112 99 91 84 73 63 50 39 35 14 355 354 13 34 52 53 39 19 30 8 6 16 14 31 44 65 110 126 115 112 110 100 86
136 120 114 108 103 107 116 123 123 127 118 105 93 87 80 78 70 64 60 39 27 28 31 39 54 54 40 29 16 348 3 0 21 30 14 9 56 108 128 131 124 116 101
102 101 97 94 87 89 86 99 114 114 111 110 108 102 96 85 82 79 73 64 55 52 45 51 52 56 42 24 6 2 13 2 348 5 350 327 1 2 115 142 147 144 138
95 90 88 89 86 73 76 87 95 98 95 95 95 92 91 78 80 87 82 72 59 54 56 68 68 54 44 18 3 359 1 341 310 318 331 326 359 2 0 106 165 183 207
99 96 94 94 88 74 77 88 96 95 88 83 84 89 90 76 65 79 85 76 65 54 58 70 75 63 58 24 360 347 340 329 329 10 13 348 359 351 345 323 247 235 252
96 93 90 89 88 76 73 88 101 102 94 82 72 67 73 71 58 70 88 91 86 76 74 84 91 91 69 41 23 13 7 360 359 16 20 3 352 341 323 313 325 279 282
96 91 86 83 84 78 64 75 94 109 105 97 85 73 65 68 61 58 74 77 73 53 54 80 98 104 79 50 41 35 21 3 355 0 22 5 353 349 329 337 351 329 316
Height
1554 1555 1557 1558 1560 1562 1564 1565 1567 1568 1569 1571 1572 1573 1574 1574 1574 1575 1576 1578 1579 1580 1581 1582 1583 1585 1586 1587 1588 1589 1590 1591 1592 1593 1594 1595 1596 1597 1597 1598 1599 1599 1600
1553 1555 1557 1558 1561 1562 1564 1565 1567 1568 1570 1571 1572 1573 1574 1575 1576 1576 1577 1578 1579 1580 1581 1582 1584 1585 1586 1587 1588 1589 1590 1591 1592 1593 1594 1595 1596 1596 1597 1598 1598 1599 1600
1553 1555 1557 1559 1561 1562 1564 1565 1567 1568 1570 1571 1572 1573 1574 1575 1576 1577 1577 1578 1579 1580 1581 1582 1583 1585 1586 1587 1588 1589 1590 1591 1592 1593 1594 1594 1595 1596 1597 1597 1598 1599 1599
1553 1555 1557 1559 1561 1562 1563 1565 1567 1568 1570 1571 1572 1573 1574 1575 1576 1577 1578 1578 1579 1580 1581 1582 1583 1584 1585 1586 1587 1588 1589 1590 1591 1592 1593 1593 1594 1595 1596 1596 1597 1598 1598
1552 1554 1556 1558 1560 1562 1563 1565 1566 1568 1569 1571 1572 1573 1574 1574 1576 1577 1578 1579 1579 1580 1581 1582 1583 1583 1584 1585 1586 1587 1588 1588 1589 1590 1591 1592 1593 1594 1594 1595 1596 1596 1597
1551 1553 1555 1557 1560 1561 1563 1564 1566 1567 1568 1570 1571 1572 1573 1574 1575 1576 1577 1578 1579 1579 1580 1581 1582 1583 1583 1584 1585 1586 1586 1587 1588 1589 1590 1590 1591 1592 1593 1593 1594 1595 1596
1550 1552 1555 1556 1558 1560 1562 1563 1565 1566 1568 1569 1571 1572 1573 1573 1574 1575 1576 1577 1578 1579 1580 1580 1581 1581 1582 1583 1583 1584 1585 1585 1586 1587 1588 1589 1589 1590 1591 1591 1592 1593 1593
1549 1552 1553 1555 1557 1559 1561 1562 1563 1565 1567 1568 1570 1571 1572 1574 1573 1574 1575 1576 1577 1578 1578 1579 1579 1580 1581 1581 1582 1583 1583 1584 1584 1585 1586 1586 1587 1588 1588 1589 1590 1590 1591
1548 1550 1552 1554 1556 1558 1559 1561 1562 1564 1566 1567 1569 1570 1570 1571 1572 1573 1574 1575 1576 1576 1577 1578 1578 1579 1579 1580 1580 1581 1582 1582 1582 1583 1583 1584 1585 1585 1586 1587 1587 1588 1588
1546 1548 1550 1552 1554 1556 1557 1559 1561 1563 1564 1566 1567 1568 1569 1570 1571 1572 1573 1573 1574 1575 1576 1577 1577 1577 1578 1578 1578 1579 1580 1580 1580 1581 1581 1582 1582 1583 1583 1584 1584 1585 1585
1544 1546 1548 1550 1552 1554 1556 1557 1559 1561 1563 1564 1566 1567 1568 1569 1570 1571 1571 1572 1573 1573 1574 1575 1576 1576 1576 1576 1576 1577 1577 1578 1578 1578 1579 1579 1580 1580 1581 1581 1581 1582 1582
1542 1544 1546 1548 1550 1552 1554 1556 1557 1559 1561 1563 1564 1565 1567 1568 1568 1569 1570 1570 1571 1572 1572 1573 1574 1574 1575 1575 1575 1575 1575 1576 1576 1576 1576 1577 1577 1577 1578 1578 1578 1578 1579
1539 1541 1544 1546 1548 1550 1552 1553 1555 1557 1559 1560 1562 1563 1565 1566 1567 1568 1568 1569 1569 1570 1571 1571 1571 1572 1572 1573 1573 1573 1573 1574 1574 1574 1574 1574 1574 1575 1575 1575 1575 1575 1576
1538 1540 1542 1543 1546 1548 1550 1551 1553 1555 1556 1558 1560 1561 1563 1564 1565 1566 1567 1568 1568 1568 1569 1569 1569 1570 1570 1570 1571 1571 1571 1571 1571 1571 1571 1571 1572 1572 1572 1572 1572 1572 1572
1536 1538 1540 1541 1543 1545 1547 1549 1551 1552 1554 1556 1557 1559 1560 1562 1563 1564 1565 1566 1567 1566 1567 1567 1567 1567 1568 1568 1568 1568 1568 1568 1568 1568 1568 1568 1568 1568 1568 1568 1569 1569 1569
1534 1536 1537 1539 1541 1543 1545 1546 1548 1550 1552 1553 1555 1557 1558 1560 1561 1562 1563 1564 1564 1565 1565 1565 1565 1565 1566 1566 1566 1566 1566 1565 1565 1565 1565 1565 1565 1565 1565 1565 1564 1564 1564
1531 1533 1535 1537 1539 1540 1542 1544 1546 1547 1549 1551 1553 1554 1555 1557 1558 1559 1560 1561 1562 1562 1563 1563 1563 1563 1563 1564 1563 1563 1563 1562 1562 1562 1562 1562 1562 1561 1561 1561 1560 1560 1560
1528 1530 1533 1534 1536 1538 1539 1541 1543 1545 1547 1548 1550 1551 1553 1554 1555 1557 1557 1558 1559 1560 1560 1560 1561 1561 1561 1561 1561 1561 1560 1560 1559 1559 1559 1558 1558 1558 1558 1557 1556 1556 1555
1525 1528 1530 1531 1533 1535 1537 1538 1541 1542 1544 1545 1547 1548 1550 1551 1553 1554 1554 1556 1556 1557 1557 1558 1558 1558 1558 1558 1558 1558 1558 1557 1557 1556 1555 1555 1555 1554 1554 1553 1552 1551 1551
1523 1525 1527 1528 1530 1532 1534 1536 1538 1539 1541 1543 1544 1546 1547 1548 1550 1551 1552 1552 1553 1554 1554 1555 1555 1555 1555 1555 1555 1555 1555 1554 1554 1553 1552 1551 1551 1550 1550 1549 1548 1547 1547
1522 1523 1525 1526 1528 1530 1531 1533 1535 1537 1538 1540 1542 1544 1545 1546 1547 1549 1549 1550 1551 1551 1552 1552 1552 1552 1552 1552 1552 1552 1552 1551 1551 1550 1549 1549 1548 1547 1546 1545 1544 1543 1542
1521 1522 1524 1525 1526 1528 1530 1531 1533 1535 1536 1538 1540 1541 1542 1544 1545 1546 1547 1548 1549 1549 1549 1550 1550 1550 1550 1550 1550 1550 1549 1549 1548 1548 1547 1546 1546 1545 1543 1542 1541 1540 1539
1520 1521 1522 1524 1525 1527 1529 1530 1532 1533 1534 1536 1538 1539 1541 1542 1543 1544 1545 1546 1546 1547 1548 1548 1548 1548 1548 1548 1548 1547 1547 1547 1546 1546 1545 1544 1544 1542 1541 1540 1539 1538 1536
1519 1520 1522 1523 1524 1526 1528 1529 1530 1532 1533 1535 1537 1538 1540 1541 1542 1543 1543 1544 1545 1545 1546 1547 1548 1547 1547 1547 1547 1546 1545 1545 1545 1543 1543 1542 1541 1540 1539 1537 1536 1535 1533
1518 1519 1521 1523 1524 1526 1527 1529 1530 1531 1532 1534 1536 1538 1539 1540 1541 1541 1543 1543 1544 1545 1546 1546 1547 1547 1546 1546 1546 1545 1544 1543 1543 1542 1541 1540 1538 1536 1536 1535 1534 1532 1530
1518 1520 1521 1523 1524 1526 1528 1529 1530 1531 1532 1534 1536 1538 1539 1540 1541 1541 1542 1543 1544 1545 1546 1546 1547 1547 1546 1546 1545 1544 1543 1543 1541 1541 1539 1538 1537 1535 1533 1532 1531 1529 1527